Hill City, KS

1:21 PM CDT on October 22, 2017 (GMT -0500)
Hill City Municipal

Weather History for KHLC - November, 2012

Change the Weather History Date:

Friday, November 2, 2012

  Actual Average Record
Temperature  
Mean Temperature 49 °F 47 °F  
Max Temperature 66 °F 61 °F 83 °F (1931)
Min Temperature 32 °F 33 °F 7 °F (1951)
Degree Days  
Heating Degree Days 16    
Moisture  
Dew Point 38 °F    
Average Humidity 73    
Maximum Humidity 96    
Minimum Humidity 37    
Precipitation  
Precipitation 0.00 in 0.05 in 0.48 in (1998)
Month to date precipitation 0.00 0.10  
Year to date precipitation 9.74 21.38  
Sea Level Pressure  
Sea Level Pressure 29.93 in    
Wind  
Wind Speed 8 mph (NNE)    
Max Wind Speed 20 mph    
Max Gust Speed 29 mph    
Visibility 9 miles    
Events      
T = Trace of Precipitation, MM = Missing Value Source: NWS Daily Summary

Daily Weather History Graph

Daily Weather History Graph

Search for Another Location

Airport or City:

Trip Planner

Search our weather history database for the weather conditions in past years. The results will help you decide how hot, cold, wet, or windy it might be!

Date:

Astronomy

Nov. 02, 2012 Rise Set
Actual Time 8:09 AM CDT 6:36 PM CDT
Civil Twilight 7:41 AM CDT 7:04 PM CDT
Nautical Twilight 7:09 AM CDT 7:35 PM CDT
Astronomical Twilight 6:37 AM CDT 8:07 PM CDT
Moon 9:25 PM CDT (11/2) 11:30 AM CDT (11/2)
Length of Visible Light 11h 23m
Length of Day
10h 27m
Waning Gibbous, 87% of the Moon is Illuminated
Nov 2
Waning Gibbous
Nov 6
Last Quarter
Nov 13
New
Nov 20
First Quarter
Nov 28
Full

Hourly Weather History & Observations

Time (CDT) Temp. Windchill Dew Point Humidity Pressure Visibility Wind Dir Wind Speed Gust Speed Precip Events Conditions
12:53 AM 46.0 °F 43.1 °F 39.0 °F 76% 29.87 in 10.0 mi ENE 5.8 mph - N/A   Clear
1:53 AM 44.1 °F 40.1 °F 39.0 °F 82% 29.85 in 10.0 mi East 6.9 mph - N/A   Clear
2:53 AM 45.0 °F 40.6 °F 39.9 °F 82% 29.82 in 10.0 mi East 8.1 mph - N/A   Clear
3:53 AM 41.0 °F 39.0 °F 37.9 °F 89% 29.81 in 10.0 mi East 3.5 mph - N/A   Clear
4:53 AM 37.9 °F - 36.0 °F 93% 29.81 in 10.0 mi Calm Calm - N/A   Clear
5:53 AM 39.9 °F 35.8 °F 37.0 °F 89% 29.80 in 10.0 mi ENE 5.8 mph - N/A   Clear
6:53 AM 37.0 °F 32.4 °F 36.0 °F 96% 29.82 in 10.0 mi East 5.8 mph - N/A   Clear
7:53 AM 35.1 °F 30.1 °F 33.1 °F 92% 29.85 in 9.0 mi NNW 5.8 mph - N/A   Clear
8:53 AM 39.0 °F 34.8 °F 37.9 °F 96% 29.86 in 6.0 mi NNW 5.8 mph - N/A   Clear
9:53 AM 45.0 °F 38.9 °F 41.0 °F 86% 29.88 in 6.0 mi North 12.7 mph - N/A   Clear
10:53 AM 50.0 °F - 41.0 °F 71% 29.89 in 8.0 mi NNW 11.5 mph - N/A   Clear
11:53 AM 55.9 °F - 41.0 °F 57% 29.88 in 9.0 mi NNW 15.0 mph 19.6 mph N/A   Clear
12:53 PM 64.0 °F - 39.0 °F 40% 29.87 in 10.0 mi North 17.3 mph 28.8 mph N/A   Clear
1:53 PM 64.9 °F - 37.9 °F 37% 29.88 in 10.0 mi North 19.6 mph 28.8 mph N/A   Clear
2:53 PM 64.9 °F - 39.0 °F 39% 29.89 in 10.0 mi North 19.6 mph - N/A   Clear
3:53 PM 59.0 °F - 37.9 °F 46% 29.95 in 10.0 mi North 16.1 mph 26.5 mph N/A   Clear
4:53 PM 57.9 °F - 39.0 °F 49% 29.98 in 10.0 mi NNE 16.1 mph - N/A   Clear
6:53 PM 48.9 °F - 37.0 °F 64% 30.05 in 10.0 mi NNE 9.2 mph - N/A   Clear
7:53 PM 45.0 °F 41.2 °F 36.0 °F 71% 30.09 in 10.0 mi NNE 6.9 mph - N/A   Clear
8:53 PM 45.0 °F 39.3 °F 37.0 °F 74% 30.12 in 10.0 mi NNE 11.5 mph - N/A   Clear
9:53 PM 41.0 °F 35.8 °F 36.0 °F 82% 30.12 in 10.0 mi NNE 8.1 mph - N/A   Clear
10:53 PM 37.9 °F 33.5 °F 34.0 °F 86% 30.13 in 8.0 mi NE 5.8 mph - N/A   Clear
11:53 PM 36.0 °F 32.1 °F 33.1 °F 89% 30.16 in 8.0 mi NW 4.6 mph - N/A   Clear